Tracking 29892 objects as of 21-Nov-2024
HD Live streaming from Space Station
objects crossing your sky now

STARLINK-3140

Track STARLINK-3140 now!
10-day predictions
STARLINK-3140 is classified as:


NORAD ID: 49460
Int'l Code: 2021-104BE
Perigee: 546.0 km
Apogee: 547.8 km
Inclination: 53.2 °
Period: 95.4 minutes
Semi major axis: 6917 km
RCS: Unknown
Launch date: November 13, 2021
Source: United States (US)
Launch site: AIR FORCE EASTERN TEST RANGE (AFETR)
Your satellite tracking list
Your tracking list is empty




NASA's NSSDC Master Catalog

Two Line Element Set (TLE):
1 49460U 21104BE  24325.63634093 -.00000558  00000-0 -16986-4 0  9995
2 49460  53.2163 187.2256 0001336  83.2578 276.8567 15.08835712167209
Source of the keplerian elements: AFSPC